Jacksonville Craig, FL

2:21 AM EDT on June 29, 2017 (GMT -0400)
Craig Municipal

Weather History for KCRG - January, 2014

Change the Weather History Date:

Wednesday, January 22, 2014

  Actual Average Record
Temperature  
Mean Temperature 42 °F -  
Max Temperature 50 °F 63 °F 79 °F (1999)
Min Temperature 33 °F 42 °F 24 °F (2009)
Degree Days  
Heating Degree Days 24    
Moisture  
Dew Point 21 °F    
Average Humidity 48    
Maximum Humidity 78    
Minimum Humidity 25    
Precipitation  
Precipitation 0.00 in - - ()
Sea Level Pressure  
Sea Level Pressure 30.09 in    
Wind  
Wind Speed 12 mph (NW)    
Max Wind Speed 23 mph    
Max Gust Speed 30 mph    
Visibility 10 miles    
Events      
Averages and records for this station are not official NWS values.
T = Trace of Precipitation, MM = Missing Value Source: NWS Daily Summary

Daily Weather History Graph

Daily Weather History Graph

Search for Another Location

Airport or City:

Trip Planner

Search our weather history database for the weather conditions in past years. The results will help you decide how hot, cold, wet, or windy it might be!

Date:

Astronomy

Jan. 22, 2014 Rise Set
Actual Time 7:21 AM EST 5:54 PM EST
Civil Twilight 6:55 AM EST 6:19 PM EST
Nautical Twilight 6:26 AM EST 6:48 PM EST
Astronomical Twilight 5:58 AM EST 7:17 PM EST
Moon 11:54 PM EST (1/22) 10:50 AM EST (1/22)
Length of Visible Light 11h 23m
Length of Day
10h 32m
Waning Gibbous, 65% of the Moon is Illuminated
Jan 22
Waning Gibbous
Jan 24
Last Quarter
Jan 30
New
Feb 6
First Quarter
Feb 14
Full

Hourly Weather History & Observations

Time (EST) Temp. Windchill Dew Point Humidity Pressure Visibility Wind Dir Wind Speed Gust Speed Precip Events Conditions
12:53 AM 45.0 °F 37.9 °F 25.0 °F 46% 29.91 in 10.0 mi NW 16.1 mph 27.6 mph N/A   Clear
1:53 AM 43.0 °F 36.0 °F 24.1 °F 47% 29.94 in 10.0 mi NW 13.8 mph - N/A   Clear
2:53 AM 41.0 °F 31.1 °F 24.1 °F 51% 29.96 in 10.0 mi NW 23.0 mph 29.9 mph N/A   Clear
3:53 AM 39.0 °F 31.8 °F 25.0 °F 57% 29.98 in 10.0 mi NNW 11.5 mph - N/A   Clear
4:53 AM 37.0 °F 29.8 °F 24.1 °F 59% 30.01 in 10.0 mi WNW 10.4 mph - N/A   Clear
5:53 AM 35.1 °F 25.5 °F 21.0 °F 57% 30.04 in 10.0 mi NNW 15.0 mph 25.3 mph N/A   Clear
6:53 AM 33.1 °F 23.4 °F 21.0 °F 61% 30.07 in 10.0 mi NW 13.8 mph - N/A   Clear
7:53 AM 33.1 °F 23.0 °F 19.9 °F 59% 30.09 in 10.0 mi NW 15.0 mph - N/A   Clear
8:53 AM 34.0 °F 23.4 °F 19.9 °F 56% 30.12 in 10.0 mi NW 17.3 mph - N/A   Clear
9:53 AM 37.0 °F 28.1 °F 19.9 °F 50% 30.14 in 10.0 mi NW 15.0 mph - N/A   Clear
10:53 AM 39.0 °F 32.3 °F 19.9 °F 46% 30.14 in 10.0 mi West 10.4 mph - N/A   Clear
11:53 AM 43.0 °F 37.2 °F 19.9 °F 40% 30.13 in 10.0 mi WNW 10.4 mph - N/A   Clear
12:53 PM 45.0 °F 38.5 °F 19.0 °F 36% 30.10 in 10.0 mi West 13.8 mph - N/A   Clear
1:53 PM 46.9 °F - 17.1 °F 30% 30.08 in 10.0 mi WNW 11.5 mph - N/A   Clear
2:53 PM 50.0 °F - 16.0 °F 26% 30.06 in 10.0 mi NNW 13.8 mph 19.6 mph N/A   Clear
3:53 PM 50.0 °F - 16.0 °F 26% 30.07 in 10.0 mi WNW 10.4 mph - N/A   Clear
4:53 PM 50.0 °F - 15.1 °F 25% 30.09 in 10.0 mi WNW 10.4 mph - N/A   Clear
5:53 PM 46.9 °F - 16.0 °F 29% 30.12 in 10.0 mi WNW 5.8 mph - N/A   Clear
6:53 PM 43.0 °F - 21.9 °F 43% 30.12 in 10.0 mi Calm Calm - N/A   Clear
7:53 PM 41.0 °F 38.0 °F 23.0 °F 49% 30.15 in 10.0 mi West 4.6 mph - N/A   Clear
8:53 PM 39.0 °F - 27.0 °F 62% 30.17 in 10.0 mi Calm Calm - N/A   Clear
9:53 PM 37.9 °F - 27.0 °F 65% 30.20 in 10.0 mi Calm Calm - N/A   Clear
10:53 PM 37.0 °F - 25.0 °F 62% 30.20 in 10.0 mi Calm Calm - N/A   Clear
11:53 PM 35.1 °F - 28.9 °F 78% 30.21 in 10.0 mi Calm Calm - N/A   Clear